Meteo pe oră la Dziezki

Astăzi, 5 Martie, Vineri

Timp Temperatura Precipitaţii Vânt Presiune Umiditate
00:00 -2°C° 0 mm 2 m/s 747 mmHg 85%
01:00 -3°C° 0 mm 2 m/s 747 mmHg 84%
02:00 -4°C° 0 mm 3 m/s 748 mmHg 84%
03:00 -4°C° 0 mm 2 m/s 748 mmHg 81%
04:00 -4°C° 0 mm 2 m/s 748 mmHg 79%
05:00 -4°C° 0 mm 2 m/s 748 mmHg 77%
06:00 -4°C° 0 mm 2 m/s 748 mmHg 75%
07:00 -4°C° 0 mm 2 m/s 749 mmHg 73%
08:00 -4°C° 0 mm 2 m/s 749 mmHg 70%
09:00 -4°C° 0 mm 3 m/s 749 mmHg 66%
10:00 -1°C° 0 mm 3 m/s 750 mmHg 62%
11:00 -1°C° 0 mm 4 m/s 750 mmHg 57%
12:00 -1°C° 0 mm 4 m/s 750 mmHg 54%
13:00 -1°C° 0 mm 4 m/s 751 mmHg 51%
14:00 0°C° 0 mm 4 m/s 751 mmHg 47%
15:00 +1°C° 0 mm 3 m/s 751 mmHg 45%
16:00 0°C° 0 mm 3 m/s 751 mmHg 43%
17:00 0°C° 0 mm 3 m/s 751 mmHg 41%
18:00 -1°C° 0 mm 2 m/s 752 mmHg 44%
19:00 -2°C° 0 mm 2 m/s 752 mmHg 47%
20:00 -1°C° 0 mm 1 m/s 753 mmHg 50%
21:00 -3°C° 0 mm 2 m/s 753 mmHg 54%
22:00 -3°C° 0 mm 2 m/s 753 mmHg 58%
23:00 -4°C° 0 mm 3 m/s 754 mmHg 62%

Mâine, 6 Martie, Sâmbătă

Timp Temperatura Precipitaţii Vânt Presiune Umiditate
00:00 -4°C° 0 mm 3 m/s 754 mmHg 66%
01:00 -4°C° 0 mm 3 m/s 754 mmHg 70%
02:00 -4°C° 0 mm 4 m/s 754 mmHg 75%
03:00 -4°C° 0 mm 4 m/s 755 mmHg 73%
04:00 -5°C° 0 mm 4 m/s 755 mmHg 71%
05:00 -6°C° 0 mm 5 m/s 755 mmHg 69%
06:00 -5°C° 0 mm 4 m/s 755 mmHg 70%
07:00 -5°C° 0 mm 4 m/s 756 mmHg 70%
08:00 -5°C° 0 mm 4 m/s 757 mmHg 71%
09:00 -4°C° 0 mm 3 m/s 757 mmHg 63%
10:00 -2°C° 0 mm 3 m/s 757 mmHg 55%
11:00 -1°C° 0 mm 3 m/s 757 mmHg 47%
12:00 -2°C° 0 mm 4 m/s 757 mmHg 47%
13:00 -1°C° 0 mm 4 m/s 757 mmHg 46%
14:00 -1°C° 0 mm 4 m/s 757 mmHg 46%
15:00 -1°C° 0 mm 4 m/s 756 mmHg 47%
16:00 -1°C° 0 mm 4 m/s 756 mmHg 48%
17:00 -1°C° 0 mm 4 m/s 755 mmHg 49%
18:00 -1°C° 0 mm 4 m/s 755 mmHg 54%
19:00 -2°C° 0 mm 4 m/s 754 mmHg 58%
20:00 -3°C° 0 mm 4 m/s 754 mmHg 63%
21:00 -4°C° 0 mm 5 m/s 753 mmHg 63%
22:00 -4°C° 0 mm 6 m/s 752 mmHg 64%
23:00 -4°C° 0 mm 7 m/s 752 mmHg 64%

Poimâine, 7 Martie, Duminică

Timp Temperatura Precipitaţii Vânt Presiune Umiditate
00:00 -3°C° 0 mm 7 m/s 751 mmHg 73%
01:00 -4°C° 0 mm 8 m/s 750 mmHg 83%
02:00 -4°C° 0 mm 8 m/s 750 mmHg 92%
03:00 -4°C° 0.1 mm 8 m/s 749 mmHg 90%
04:00 -4°C° 0.1 mm 9 m/s 748 mmHg 88%
05:00 -4°C° 0.1 mm 9 m/s 747 mmHg 87%
06:00 -4°C° 0 mm 9 m/s 747 mmHg 86%
07:00 -4°C° 0 mm 9 m/s 747 mmHg 85%
08:00 -4°C° 0 mm 9 m/s 747 mmHg 85%
09:00 -4°C° 0.2 mm 9 m/s 747 mmHg 87%
10:00 -3°C° 0.2 mm 9 m/s 747 mmHg 89%
11:00 -3°C° 0.2 mm 9 m/s 747 mmHg 91%
12:00 -3°C° 0.1 mm 9 m/s 746 mmHg 88%
13:00 -3°C° 0.1 mm 9 m/s 746 mmHg 85%
14:00 -1°C° 0.1 mm 9 m/s 746 mmHg 83%
15:00 -1°C° 0.1 mm 9 m/s 746 mmHg 85%
16:00 -3°C° 0.1 mm 9 m/s 745 mmHg 87%
17:00 -2°C° 0.1 mm 8 m/s 745 mmHg 89%
18:00 -2°C° 0.5 mm 7 m/s 745 mmHg 91%
19:00 -3°C° 0.5 mm 6 m/s 745 mmHg 93%
20:00 -2°C° 0.5 mm 5 m/s 745 mmHg 95%
21:00 -3°C° 0.7 mm 4 m/s 745 mmHg 93%
22:00 -4°C° 0.7 mm 3 m/s 745 mmHg 91%
23:00 -4°C° 0.7 mm 3 m/s 745 mmHg 89%

8 Martie, Luni

Timp Temperatura Precipitaţii Vânt Presiune Umiditate
00:00 -3°C° 0.1 mm 2 m/s 745 mmHg 87%
01:00 -3°C° 0.1 mm 2 m/s 745 mmHg 85%
02:00 -4°C° 0.1 mm 2 m/s 745 mmHg 83%
03:00 -4°C° 0 mm 2 m/s 745 mmHg 84%
04:00 -4°C° 0 mm 2 m/s 745 mmHg 84%
05:00 -5°C° 0 mm 2 m/s 745 mmHg 84%
06:00 -6°C° 0 mm 3 m/s 746 mmHg 84%
07:00 -6°C° 0 mm 3 m/s 746 mmHg 84%
08:00 -6°C° 0 mm 3 m/s 746 mmHg 84%
09:00 -5°C° 0 mm 3 m/s 747 mmHg 79%
10:00 -4°C° 0 mm 4 m/s 747 mmHg 74%
11:00 -3°C° 0 mm 4 m/s 748 mmHg 69%
12:00 -3°C° 0.1 mm 4 m/s 748 mmHg 67%
13:00 -4°C° 0.1 mm 5 m/s 748 mmHg 64%
14:00 -2°C° 0.1 mm 5 m/s 749 mmHg 62%
15:00 -4°C° 0 mm 5 m/s 749 mmHg 63%
16:00 -4°C° 0 mm 5 m/s 749 mmHg 64%
17:00 -4°C° 0 mm 5 m/s 749 mmHg 65%
18:00 -4°C° 0 mm 4 m/s 750 mmHg 69%
19:00 -5°C° 0 mm 3 m/s 750 mmHg 73%
20:00 -6°C° 0 mm 3 m/s 751 mmHg 77%
21:00 -6°C° 0 mm 3 m/s 752 mmHg 78%
22:00 -5°C° 0 mm 2 m/s 752 mmHg 79%
23:00 -5°C° 0 mm 2 m/s 753 mmHg 80%

9 Martie, Marţi

Timp Temperatura Precipitaţii Vânt Presiune Umiditate
00:00 -6°C° 0 mm 2 m/s 753 mmHg 79%
01:00 -6°C° 0 mm 2 m/s 753 mmHg 79%
02:00 -6°C° 0 mm 2 m/s 754 mmHg 78%
03:00 -6°C° 0 mm 2 m/s 754 mmHg 78%
04:00 -7°C° 0 mm 2 m/s 754 mmHg 78%
05:00 -7°C° 0 mm 2 m/s 754 mmHg 78%
06:00 -7°C° 0 mm 2 m/s 754 mmHg 75%
07:00 -8°C° 0 mm 3 m/s 755 mmHg 72%
08:00 -8°C° 0 mm 3 m/s 755 mmHg 70%
09:00 -8°C° 0 mm 3 m/s 756 mmHg 65%
10:00 -7°C° 0 mm 3 m/s 756 mmHg 59%
11:00 -6°C° 0 mm 3 m/s 756 mmHg 54%
12:00 -6°C° 0 mm 3 m/s 756 mmHg 50%
13:00 -5°C° 0 mm 3 m/s 757 mmHg 46%
14:00 -4°C° 0 mm 2 m/s 757 mmHg 42%
15:00 -4°C° 0 mm 2 m/s 757 mmHg 43%
16:00 -4°C° 0 mm 2 m/s 757 mmHg 43%
17:00 -4°C° 0 mm 2 m/s 757 mmHg 44%
18:00 -5°C° 0 mm 2 m/s 757 mmHg 48%
19:00 -5°C° 0 mm 2 m/s 758 mmHg 53%
20:00 -4°C° 0 mm 1 m/s 758 mmHg 57%
21:00 -4°C° 0 mm 1 m/s 758 mmHg 58%
22:00 -4°C° 0 mm 1 m/s 759 mmHg 59%
23:00 -6°C° 0 mm 1 m/s 759 mmHg 60%

10 Martie, Miercuri

Timp Temperatura Precipitaţii Vânt Presiune Umiditate
00:00 -6°C° 0 mm 1 m/s 759 mmHg 62%
01:00 -7°C° 0 mm 2 m/s 759 mmHg 64%
02:00 -7°C° 0 mm 2 m/s 759 mmHg 65%
03:00 -8°C° 0 mm 2 m/s 759 mmHg 66%
04:00 -8°C° 0 mm 2 m/s 759 mmHg 67%
05:00 -8°C° 0 mm 2 m/s 759 mmHg 68%
06:00 -8°C° 0 mm 2 m/s 759 mmHg 67%
07:00 -8°C° 0 mm 2 m/s 759 mmHg 66%
08:00 -9°C° 0 mm 3 m/s 759 mmHg 66%
09:00 -7°C° 0 mm 3 m/s 759 mmHg 60%
10:00 -6°C° 0 mm 3 m/s 759 mmHg 54%
11:00 -5°C° 0 mm 4 m/s 759 mmHg 48%
12:00 -4°C° 0 mm 4 m/s 758 mmHg 45%
13:00 -4°C° 0 mm 5 m/s 758 mmHg 42%
14:00 -4°C° 0 mm 5 m/s 757 mmHg 39%
15:00 -2°C° 0 mm 5 m/s 757 mmHg 39%
16:00 -2°C° 0 mm 5 m/s 756 mmHg 39%
17:00 -2°C° 0 mm 5 m/s 756 mmHg 39%
18:00 -4°C° 0 mm 5 m/s 755 mmHg 41%
19:00 -5°C° 0 mm 5 m/s 755 mmHg 43%
20:00 -6°C° 0 mm 5 m/s 755 mmHg 45%
21:00 -5°C° 0 mm 5 m/s 754 mmHg 44%
22:00 -5°C° 0 mm 6 m/s 753 mmHg 43%
23:00 -5°C° 0 mm 6 m/s 753 mmHg 41%
Arată mai mult

Formular de consimțământ

Meteoprog și furnizorii noștri de servicii pot stoca și accesa date personale, precum cookies, identificatori de dispozitiv sau alte tehnologii similare pe dispozitivul dumneavoastră și procesa astfel de date pentru a personaliza conținutul și reclamele, dar și pentru a oferi caracteristici de social media și pentru a analiza traficul.

  • Stocarea și/sau accesarea informațiilor pe dispozitivul dumneavoastră

    Cookies, identificatori de dispozitiv sau alte informații pot fi stocate sau accesate pe dispozitiv în scopurile indicate mai sus.

  • Reclame și conținut personalizat, evaluarea reclamelor și a conținutului, informații despre audiențe și dezvoltarea produselor

    Reclamele și conținutul pot fi personalizate pe baza unui profil. Pot fi adăugate date suplimentare pentru a personaliza mai bine reclamele și conținutul. Performanța reclamelor și conținutului poate fi măsurată. Pot fi obținute informații despre utilizatorii care au văzut reclamele și conținutul. Aceste date pot fi utilizate pentru a dezvolta sau îmbunătăți experiența utilizatorilor, sistemele și software-ul.

Dând clic pe ‘Sunt de acord’, permiteți utilizarea cookie-urilor menționate, a identificatorilor de dispozitiv, balizelor web sau altor tehnologii similare. Setările pot fi modificate din browser-ul dispozitivului dumneavoastră.

În anumite scopuri, interesele legitime pot prima asupra consimțământului. Puteți citi mai multe informații în acest sens în Politica privind Confidențialitatea Datelor și Cookie.